Time,TemperatureF,DewpointF,PressureIn,WindDirection,WindDirectionDegrees,WindSpeedMPH,WindSpeedGustMPH,Humidity,HourlyPrecipIn,Conditions,Clouds,dailyrainin,SolarRadiationWatts/m^2,SoftwareType,DateUTC
2013-07-22 00:01:00,58.8,58.8,29.88,WSW,239,0.0,0.0,100,0.00,RA,,0.00,0.0,WeatherDisplay:10.37,2013-07-22 05:01:00,
2013-07-22 00:06:00,58.6,58.6,29.88,WSW,239,0.0,0.0,100,0.00,RA,,0.00,0.0,WeatherDisplay:10.37,2013-07-22 05:06:00,
2013-07-22 00:11:00,58.6,58.6,29.88,WSW,239,0.0,0.0,100,0.00,CLR,,0.00,0.0,WeatherDisplay:10.37,2013-07-22 05:11:00,
2013-07-22 00:16:00,58.5,58.5,29.88,WSW,239,0.0,0.0,100,0.00,CLR,,0.00,0.0,WeatherDisplay:10.37,2013-07-22 05:16:00,
2013-07-22 00:21:00,58.3,58.3,29.88,WSW,239,0.0,0.0,100,0.00,CLR,,0.00,0.0,WeatherDisplay:10.37,2013-07-22 05:21:00,
2013-07-22 00:26:00,58.1,58.1,29.88,WSW,239,0.0,0.0,100,0.00,CLR,,0.00,0.0,WeatherDisplay:10.37,2013-07-22 05:26:00,
2013-07-22 00:31:00,58.3,58.3,29.88,WSW,239,0.0,0.0,100,0.00,CLR,,0.00,0.0,WeatherDisplay:10.37,2013-07-22 05:31:00,
2013-07-22 00:36:00,58.5,58.5,29.88,WSW,239,0.0,0.0,100,0.00,CLR,,0.00,0.0,WeatherDisplay:10.37,2013-07-22 05:36:00,
2013-07-22 00:41:00,58.6,58.6,29.88,WSW,239,0.0,0.0,100,0.00,SCT,,0.00,0.0,WeatherDisplay:10.37,2013-07-22 05:41:00,
2013-07-22 00:46:00,58.8,58.8,29.88,WSW,239,0.0,0.0,100,0.00,SCT,,0.00,0.0,WeatherDisplay:10.37,2013-07-22 05:46:00,
2013-07-22 00:51:00,59.0,59.0,29.88,WSW,239,0.0,0.0,100,0.00,SCT,,0.00,0.0,WeatherDisplay:10.37,2013-07-22 05:51:00,
2013-07-22 00:56:00,59.0,59.0,29.88,WSW,239,0.0,0.0,100,0.00,SCT,,0.00,0.0,WeatherDisplay:10.37,2013-07-22 05:56:00,
2013-07-22 01:01:00,59.2,59.2,29.88,WSW,239,0.0,0.0,100,0.00,OVC,,0.00,0.0,WeatherDisplay:10.37,2013-07-22 06:01:00,
2013-07-22 01:06:00,59.2,59.2,29.88,WSW,239,0.0,0.0,100,0.00,OVC,,0.00,0.0,WeatherDisplay:10.37,2013-07-22 06:06:00,
2013-07-22 01:11:00,59.2,59.2,29.88,WSW,239,0.0,0.0,100,0.00,OVC,,0.00,0.0,WeatherDisplay:10.37,2013-07-22 06:11:00,
2013-07-22 01:16:00,59.2,59.2,29.85,WSW,239,0.0,0.0,100,0.00,OVC,,0.00,0.0,WeatherDisplay:10.37,2013-07-22 06:16:00,
2013-07-22 01:21:00,59.2,59.2,29.85,WSW,239,0.0,0.0,100,0.00,OVC,,0.00,0.0,WeatherDisplay:10.37,2013-07-22 06:21:00,
2013-07-22 01:26:00,59.2,59.2,29.85,WSW,239,0.0,0.0,100,0.00,OVC,,0.00,0.0,WeatherDisplay:10.37,2013-07-22 06:26:00,
2013-07-22 01:31:00,59.2,59.2,29.85,WSW,239,0.0,0.0,100,0.00,OVC,,0.00,0.0,WeatherDisplay:10.37,2013-07-22 06:31:00,
2013-07-22 01:36:00,59.2,59.2,29.85,WSW,239,0.0,0.0,100,0.00,OVC,,0.00,0.0,WeatherDisplay:10.37,2013-07-22 06:36:00,
2013-07-22 01:41:00,59.2,59.2,29.85,WSW,239,0.0,0.0,100,0.00,OVC,,0.00,0.0,WeatherDisplay:10.37,2013-07-22 06:41:00,
2013-07-22 01:46:00,59.4,59.4,29.85,WSW,239,0.0,0.0,100,0.00,OVC,,0.00,0.0,WeatherDisplay:10.37,2013-07-22 06:46:00,
2013-07-22 01:51:00,59.4,59.4,29.85,WSW,239,0.0,0.0,100,0.00,OVC,,0.00,0.0,WeatherDisplay:10.37,2013-07-22 06:51:00,
2013-07-22 01:56:00,59.4,59.4,29.85,WSW,239,0.0,0.0,100,0.00,OVC,,0.00,0.0,WeatherDisplay:10.37,2013-07-22 06:56:00,
2013-07-22 02:01:00,59.4,59.4,29.85,WSW,239,0.0,0.0,100,0.00,-DZ,,0.00,0.0,WeatherDisplay:10.37,2013-07-22 07:01:00,
2013-07-22 02:06:00,59.4,59.4,29.85,WSW,239,0.0,0.0,100,0.00,-DZ,,0.00,0.0,WeatherDisplay:10.37,2013-07-22 07:06:00,
2013-07-22 02:11:00,59.4,59.4,29.85,WSW,239,0.0,0.0,100,0.00,-DZ,,0.00,0.0,WeatherDisplay:10.37,2013-07-22 07:11:00,
2013-07-22 02:16:00,59.4,59.4,29.85,WSW,239,0.0,0.0,100,0.00,-DZ,,0.00,0.0,WeatherDisplay:10.37,2013-07-22 07:16:00,
2013-07-22 02:21:00,59.4,59.4,29.85,WNW,302,0.0,0.0,100,0.00,-DZ,,0.00,0.0,WeatherDisplay:10.37,2013-07-22 07:21:00,
2013-07-22 02:26:00,59.5,59.5,29.85,WNW,302,0.0,0.0,100,0.00,-DZ,,0.00,0.0,WeatherDisplay:10.37,2013-07-22 07:26:00,
2013-07-22 02:31:00,59.5,59.5,29.85,WNW,302,0.0,0.0,100,0.00,OVC,,0.00,0.0,WeatherDisplay:10.37,2013-07-22 07:31:00,
2013-07-22 02:36:00,59.5,59.5,29.85,WNW,302,0.0,0.0,100,0.00,OVC,,0.00,0.0,WeatherDisplay:10.37,2013-07-22 07:36:00,
2013-07-22 02:41:00,59.5,59.5,29.85,NW,326,0.0,0.0,100,0.00,OVC,,0.00,0.0,WeatherDisplay:10.37,2013-07-22 07:41:00,
2013-07-22 02:46:00,59.5,59.5,29.85,NW,326,0.0,0.0,100,0.00,OVC,,0.00,0.0,WeatherDisplay:10.37,2013-07-22 07:46:00,
2013-07-22 02:51:00,59.5,59.5,29.85,NW,326,0.0,0.0,100,0.00,OVC,,0.00,0.0,WeatherDisplay:10.37,2013-07-22 07:51:00,
2013-07-22 02:56:00,59.5,59.5,29.85,NW,326,0.0,0.0,100,0.00,OVC,,0.00,0.0,WeatherDisplay:10.37,2013-07-22 07:56:00,
2013-07-22 03:01:00,59.5,59.5,29.85,NW,326,0.0,0.0,100,0.00,OVC,,0.00,0.0,WeatherDisplay:10.37,2013-07-22 08:01:00,
2013-07-22 03:06:00,59.5,59.5,29.85,NW,326,0.0,0.0,100,0.00,OVC,,0.00,0.0,WeatherDisplay:10.37,2013-07-22 08:06:00,
2013-07-22 03:11:00,59.5,59.5,29.85,NW,326,0.0,0.0,100,0.00,OVC,,0.00,0.0,WeatherDisplay:10.37,2013-07-22 08:11:00,
2013-07-22 03:16:00,59.7,59.7,29.85,NW,326,0.0,0.0,100,0.00,OVC,,0.00,0.0,WeatherDisplay:10.37,2013-07-22 08:16:00,
2013-07-22 03:21:00,59.5,59.5,29.85,NW,326,0.0,0.0,100,0.00,OVC,,0.00,0.0,WeatherDisplay:10.37,2013-07-22 08:21:00,
2013-07-22 03:26:00,59.5,59.5,29.85,NW,326,0.0,0.0,100,0.00,OVC,,0.00,0.0,WeatherDisplay:10.37,2013-07-22 08:26:00,
2013-07-22 03:31:00,59.5,59.5,29.85,NW,326,0.0,0.0,100,0.00,OVC,,0.00,0.0,WeatherDisplay:10.37,2013-07-22 08:31:00,
2013-07-22 03:36:00,59.5,59.5,29.85,NW,326,0.0,0.0,100,0.00,OVC,,0.00,0.0,WeatherDisplay:10.37,2013-07-22 08:36:00,
2013-07-22 03:41:00,59.5,59.5,29.85,NW,326,0.0,0.0,100,0.00,OVC,,0.00,0.0,WeatherDisplay:10.37,2013-07-22 08:41:00,
2013-07-22 03:46:00,59.7,59.7,29.85,NW,326,0.0,0.0,100,0.00,OVC,,0.00,0.0,WeatherDisplay:10.37,2013-07-22 08:46:00,
2013-07-22 03:51:00,59.7,59.7,29.85,NW,326,0.0,0.0,100,0.00,OVC,,0.00,0.0,WeatherDisplay:10.37,2013-07-22 08:51:00,
2013-07-22 03:56:00,59.7,59.7,29.85,NW,326,0.0,0.0,100,0.00,OVC,,0.00,0.0,WeatherDisplay:10.37,2013-07-22 08:56:00,
2013-07-22 04:01:00,59.7,59.7,29.82,NW,326,0.0,0.0,100,0.00,OVC,,0.00,0.0,WeatherDisplay:10.37,2013-07-22 09:01:00,
2013-07-22 04:06:00,59.7,59.7,29.82,NW,326,0.0,0.0,100,0.00,OVC,,0.00,0.0,WeatherDisplay:10.37,2013-07-22 09:06:00,
2013-07-22 04:11:00,59.7,59.7,29.82,NW,326,0.0,0.0,100,0.00,OVC,,0.00,0.0,WeatherDisplay:10.37,2013-07-22 09:11:00,
2013-07-22 04:16:00,59.7,59.7,29.82,NW,326,0.0,0.0,100,0.00,OVC,,0.00,0.0,WeatherDisplay:10.37,2013-07-22 09:16:00,
2013-07-22 04:21:00,59.7,59.7,29.82,SW,232,0.0,0.0,100,0.00,OVC,,0.00,0.0,WeatherDisplay:10.37,2013-07-22 09:21:00,
2013-07-22 04:26:00,59.5,59.5,29.82,SW,232,0.0,0.0,100,0.00,OVC,,0.00,0.0,WeatherDisplay:10.37,2013-07-22 09:26:00,
2013-07-22 04:31:00,59.5,59.5,29.82,SW,232,0.0,0.0,100,0.00,OVC,,0.00,0.0,WeatherDisplay:10.37,2013-07-22 09:31:00,
2013-07-22 04:36:00,59.5,59.5,29.82,SW,232,0.0,0.0,100,0.00,OVC,,0.00,0.0,WeatherDisplay:10.37,2013-07-22 09:36:00,
2013-07-22 04:41:00,59.5,59.5,29.82,SW,232,0.0,0.0,100,0.00,OVC,,0.00,0.0,WeatherDisplay:10.37,2013-07-22 09:41:00,
2013-07-22 04:46:00,59.5,59.5,29.82,SW,232,0.0,0.0,100,0.00,OVC,,0.00,0.0,WeatherDisplay:10.37,2013-07-22 09:46:00,
2013-07-22 04:51:00,59.7,59.7,29.82,SW,232,0.0,0.0,100,0.00,OVC,,0.00,0.0,WeatherDisplay:10.37,2013-07-22 09:51:00,
2013-07-22 04:56:00,59.5,59.5,29.82,SW,232,0.0,0.0,100,0.00,OVC,,0.00,0.0,WeatherDisplay:10.37,2013-07-22 09:56:00,
2013-07-22 05:01:00,59.5,59.5,29.82,North,6,0.0,0.0,100,0.00,OVC,,0.00,0.0,WeatherDisplay:10.37,2013-07-22 10:01:00,
2013-07-22 05:06:00,59.4,59.4,29.82,NNE,24,0.0,0.0,100,0.00,OVC,,0.00,0.0,WeatherDisplay:10.37,2013-07-22 10:06:00,
2013-07-22 05:11:00,59.2,59.2,29.82,North,0,0.0,0.0,100,0.00,OVC,,0.00,0.0,WeatherDisplay:10.37,2013-07-22 10:11:00,
2013-07-22 05:16:00,59.2,59.2,29.82,NW,309,0.0,0.0,100,0.00,OVC,,0.00,0.0,WeatherDisplay:10.37,2013-07-22 10:16:00,
2013-07-22 05:21:00,59.2,59.2,29.82,NW,309,0.0,0.0,100,0.00,OVC,,0.00,0.0,WeatherDisplay:10.37,2013-07-22 10:21:00,
2013-07-22 05:26:00,59.0,59.0,29.82,NW,309,0.0,0.0,100,0.00,OVC,,0.00,0.0,WeatherDisplay:10.37,2013-07-22 10:26:00,
2013-07-22 05:31:00,59.0,59.0,29.82,WSW,246,2.3,0.0,100,0.00,OVC,,0.00,0.0,WeatherDisplay:10.37,2013-07-22 10:31:00,
2013-07-22 05:36:00,59.0,59.0,29.82,WSW,248,0.0,0.0,100,0.00,OVC,,0.00,0.0,WeatherDisplay:10.37,2013-07-22 10:36:00,
2013-07-22 05:41:00,59.0,59.0,29.82,WSW,248,0.0,0.0,100,0.00,OVC,,0.00,0.0,WeatherDisplay:10.37,2013-07-22 10:41:00,
2013-07-22 05:46:00,59.0,59.0,29.82,WSW,248,0.0,0.0,100,0.00,OVC,,0.00,0.0,WeatherDisplay:10.37,2013-07-22 10:46:00,
2013-07-22 05:51:00,59.2,59.2,29.82,WNW,291,0.0,0.0,100,0.00,OVC,,0.00,0.0,WeatherDisplay:10.37,2013-07-22 10:51:00,
2013-07-22 05:56:00,59.2,59.2,29.82,WNW,284,0.0,0.0,100,0.00,OVC,,0.00,0.0,WeatherDisplay:10.37,2013-07-22 10:56:00,
2013-07-22 06:01:00,59.4,59.4,29.82,WNW,284,0.0,0.0,100,0.00,OVC,,0.00,0.0,WeatherDisplay:10.37,2013-07-22 11:01:00,
2013-07-22 06:06:00,59.4,59.4,29.82,WNW,284,0.0,0.0,100,0.00,OVC,,0.00,0.0,WeatherDisplay:10.37,2013-07-22 11:06:00,
2013-07-22 06:11:00,59.4,59.4,29.82,South,180,0.0,0.0,100,0.00,OVC,,0.00,0.0,WeatherDisplay:10.37,2013-07-22 11:11:00,
2013-07-22 06:16:00,59.2,59.2,29.82,WSW,255,0.0,0.0,100,0.00,OVC,,0.00,0.0,WeatherDisplay:10.37,2013-07-22 11:16:00,
2013-07-22 06:21:00,59.2,59.2,29.82,North,357,0.0,0.0,100,0.00,OVC,,0.00,0.0,WeatherDisplay:10.37,2013-07-22 11:21:00,
2013-07-22 06:26:00,59.2,59.2,29.82,NNW,339,0.0,0.0,100,0.00,OVC,,0.00,0.0,WeatherDisplay:10.37,2013-07-22 11:26:00,
2013-07-22 06:31:00,59.4,59.4,29.82,NNW,341,0.0,0.0,100,0.00,OVC,,0.00,0.0,WeatherDisplay:10.37,2013-07-22 11:31:00,
2013-07-22 06:36:00,59.4,59.4,29.82,SW,223,0.0,0.0,100,0.00,OVC,,0.00,0.0,WeatherDisplay:10.37,2013-07-22 11:36:00,
2013-07-22 06:41:00,59.5,59.5,29.82,SSE,160,0.0,0.0,100,0.00,OVC,,0.00,0.0,WeatherDisplay:10.37,2013-07-22 11:41:00,
2013-07-22 06:46:00,59.7,59.7,29.82,SSE,160,0.0,0.0,100,0.00,OVC,,0.00,0.0,WeatherDisplay:10.37,2013-07-22 11:46:00,
2013-07-22 06:51:00,59.9,59.9,29.82,SSE,160,0.0,0.0,100,0.00,OVC,,0.00,0.0,WeatherDisplay:10.37,2013-07-22 11:51:00,
2013-07-22 06:56:00,59.9,59.9,29.82,SSE,160,0.0,0.0,100,0.00,OVC,,0.00,0.0,WeatherDisplay:10.37,2013-07-22 11:56:00,
2013-07-22 07:01:00,60.1,60.1,29.82,SSW,212,0.0,0.0,100,0.00,OVC,,0.00,0.0,WeatherDisplay:10.37,2013-07-22 12:01:00,
2013-07-22 07:06:00,60.1,60.1,29.82,SSW,204,0.0,0.0,100,0.00,OVC,,0.00,0.0,WeatherDisplay:10.37,2013-07-22 12:06:00,
2013-07-22 07:11:00,60.1,60.1,29.82,SSW,205,0.0,0.0,100,0.00,OVC,,0.00,0.0,WeatherDisplay:10.37,2013-07-22 12:11:00,
2013-07-22 07:16:00,60.3,60.3,29.82,SSW,205,0.0,0.0,100,0.00,OVC,,0.00,0.0,WeatherDisplay:10.37,2013-07-22 12:16:00,
2013-07-22 07:21:00,60.4,60.4,29.82,SSW,205,0.0,0.0,100,0.00,OVC,,0.00,0.0,WeatherDisplay:10.37,2013-07-22 12:21:00,
2013-07-22 07:26:00,60.6,60.6,29.82,SW,233,3.5,0.0,100,0.00,OVC,,0.00,0.0,WeatherDisplay:10.37,2013-07-22 12:26:00,
2013-07-22 07:31:00,60.6,60.6,29.82,SSW,193,0.0,0.0,100,0.00,OVC,,0.00,0.0,WeatherDisplay:10.37,2013-07-22 12:31:00,
2013-07-22 07:36:00,60.6,60.6,29.82,SW,234,0.0,0.0,100,0.00,OVC,,0.00,0.0,WeatherDisplay:10.37,2013-07-22 12:36:00,
2013-07-22 07:41:00,61.0,61.0,29.82,SW,234,0.0,0.0,100,0.00,OVC,,0.00,0.0,WeatherDisplay:10.37,2013-07-22 12:41:00,
2013-07-22 07:46:00,61.2,61.2,29.82,SSW,208,3.5,3.5,100,0.00,OVC,,0.00,0.0,WeatherDisplay:10.37,2013-07-22 12:46:00,
2013-07-22 07:51:00,61.5,61.5,29.82,SSW,204,3.3,0.0,100,0.00,OVC,,0.00,0.0,WeatherDisplay:10.37,2013-07-22 12:51:00,
2013-07-22 07:56:00,62.1,62.1,29.82,South,178,0.0,0.0,100,0.00,OVC,,0.00,0.0,WeatherDisplay:10.37,2013-07-22 12:56:00,
2013-07-22 08:01:00,62.4,62.4,29.82,SSW,205,2.3,0.0,100,0.00,OVC,,0.00,0.0,WeatherDisplay:10.37,2013-07-22 13:01:00,
2013-07-22 08:06:00,62.8,62.8,29.82,South,179,0.0,0.0,100,0.00,OVC,,0.00,0.0,WeatherDisplay:10.37,2013-07-22 13:06:00,
2013-07-22 08:11:00,63.0,63.0,29.82,WSW,240,2.3,0.0,100,0.00,OVC,,0.00,0.0,WeatherDisplay:10.37,2013-07-22 13:11:00,
2013-07-22 08:16:00,63.7,63.7,29.79,SSW,204,2.3,2.3,100,0.00,OVC,,0.00,0.0,WeatherDisplay:10.37,2013-07-22 13:16:00,
2013-07-22 08:21:00,64.0,64.0,29.79,SW,222,2.3,0.0,100,0.00,OVC,,0.00,0.0,WeatherDisplay:10.37,2013-07-22 13:21:00,
2013-07-22 08:26:00,64.4,64.4,29.79,SSW,208,4.6,4.6,100,0.00,OVC,,0.00,0.0,WeatherDisplay:10.37,2013-07-22 13:26:00,
2013-07-22 08:31:00,64.8,64.8,29.79,WSW,240,4.6,0.0,100,0.00,OVC,,0.00,0.0,WeatherDisplay:10.37,2013-07-22 13:31:00,
2013-07-22 08:36:00,65.1,65.1,29.79,SSW,211,3.5,0.0,100,0.00,OVC,,0.00,0.0,WeatherDisplay:10.37,2013-07-22 13:36:00,
2013-07-22 08:41:00,65.7,65.7,29.79,SW,225,2.3,0.0,100,0.00,OVC,,0.00,0.0,WeatherDisplay:10.37,2013-07-22 13:41:00,
2013-07-22 08:46:00,66.0,66.0,29.79,SW,229,0.0,0.0,100,0.00,OVC,,0.00,0.0,WeatherDisplay:10.37,2013-07-22 13:46:00,
2013-07-22 08:51:00,66.4,66.4,29.79,South,172,2.3,0.0,100,0.00,OVC,,0.00,0.0,WeatherDisplay:10.37,2013-07-22 13:51:00,
2013-07-22 08:56:00,66.7,66.7,29.79,SSE,167,5.8,5.8,100,0.00,OVC,,0.00,0.0,WeatherDisplay:10.37,2013-07-22 13:56:00,
2013-07-22 09:01:00,66.7,66.7,29.79,SSW,208,4.6,0.0,100,0.00,OVC,,0.00,0.0,WeatherDisplay:10.37,2013-07-22 14:01:00,
2013-07-22 09:06:00,67.1,67.1,29.79,SSW,211,5.8,5.8,100,0.00,OVC,,0.00,0.0,WeatherDisplay:10.37,2013-07-22 14:06:00,
2013-07-22 09:11:00,67.3,67.3,29.79,SSE,167,3.5,0.0,100,0.00,OVC,,0.00,0.0,WeatherDisplay:10.37,2013-07-22 14:11:00,
2013-07-22 09:16:00,67.6,67.6,29.79,SW,218,4.6,4.6,100,0.00,OVC,,0.00,0.0,WeatherDisplay:10.37,2013-07-22 14:16:00,
2013-07-22 09:21:00,68.0,68.0,29.79,SW,219,5.8,5.8,100,0.00,OVC,,0.00,0.0,WeatherDisplay:10.37,2013-07-22 14:21:00,
2013-07-22 09:26:00,68.4,68.4,29.79,South,190,5.8,5.8,100,0.00,OVC,,0.00,0.0,WeatherDisplay:10.37,2013-07-22 14:26:00,
2013-07-22 09:31:00,68.7,68.4,29.79,WSW,245,5.8,5.8,99,0.00,OVC,,0.00,0.0,WeatherDisplay:10.37,2013-07-22 14:31:00,
2013-07-22 09:36:00,68.9,68.0,29.79,SSW,198,4.6,4.6,97,0.00,OVC,,0.00,0.0,WeatherDisplay:10.37,2013-07-22 14:36:00,
2013-07-22 09:41:00,69.3,67.8,29.79,WSW,241,4.6,4.6,95,0.00,OVC,,0.00,0.0,WeatherDisplay:10.37,2013-07-22 14:41:00,
2013-07-22 09:46:00,69.6,67.2,29.79,SSW,213,6.2,6.2,92,0.00,OVC,,0.00,0.0,WeatherDisplay:10.37,2013-07-22 14:46:00,
2013-07-22 09:51:00,69.8,66.7,29.79,SSW,207,2.3,0.0,90,0.00,BKN,,0.00,0.0,WeatherDisplay:10.37,2013-07-22 14:51:00,
2013-07-22 09:56:00,70.0,66.3,29.79,SSW,196,5.8,5.8,88,0.00,BKN,,0.00,0.0,WeatherDisplay:10.37,2013-07-22 14:56:00,
2013-07-22 10:01:00,70.2,66.1,29.79,SSW,207,4.6,0.0,87,0.00,BKN,,0.00,0.0,WeatherDisplay:10.37,2013-07-22 15:01:00,
2013-07-22 10:06:00,70.5,66.1,29.79,WSW,237,6.9,6.9,86,0.00,BKN,,0.00,0.0,WeatherDisplay:10.37,2013-07-22 15:06:00,
2013-07-22 10:11:00,70.7,65.6,29.79,SW,221,3.5,3.5,84,0.00,BKN,,0.00,0.0,WeatherDisplay:10.37,2013-07-22 15:11:00,
2013-07-22 10:16:00,70.9,65.5,29.79,SW,223,5.8,5.8,83,0.00,BKN,,0.00,0.0,WeatherDisplay:10.37,2013-07-22 15:16:00,
2013-07-22 10:21:00,71.1,65.6,29.79,SW,229,5.8,5.8,83,0.00,BKN,,0.00,0.0,WeatherDisplay:10.37,2013-07-22 15:21:00,
2013-07-22 10:26:00,71.6,65.1,29.79,SSW,211,8.1,8.1,80,0.00,BKN,,0.00,0.0,WeatherDisplay:10.37,2013-07-22 15:26:00,
2013-07-22 10:31:00,72.0,65.1,29.79,SW,235,6.9,6.9,79,0.00,BKN,,0.00,0.0,WeatherDisplay:10.37,2013-07-22 15:31:00,
2013-07-22 10:36:00,72.3,64.7,29.79,SE,135,5.8,5.8,77,0.00,BKN,,0.00,0.0,WeatherDisplay:10.37,2013-07-22 15:36:00,
2013-07-22 10:41:00,72.7,64.7,29.79,South,169,5.8,5.8,76,0.00,SCT,,0.00,0.0,WeatherDisplay:10.37,2013-07-22 15:41:00,
2013-07-22 10:46:00,73.0,64.3,29.76,SE,134,6.9,6.9,74,0.00,SCT,,0.00,0.0,WeatherDisplay:10.37,2013-07-22 15:46:00,
2013-07-22 10:51:00,73.4,64.2,29.76,SSW,213,5.8,5.8,73,0.00,SCT,,0.00,0.0,WeatherDisplay:10.37,2013-07-22 15:51:00,
2013-07-22 10:56:00,74.1,64.5,29.76,SE,135,3.5,3.5,72,0.00,SCT,,0.00,0.0,WeatherDisplay:10.37,2013-07-22 15:56:00,
2013-07-22 11:01:00,74.7,64.6,29.76,South,186,5.8,5.8,71,0.00,CLR,,0.00,0.0,WeatherDisplay:10.37,2013-07-22 16:01:00,
2013-07-22 11:06:00,75.4,64.9,29.76,WSW,258,8.1,8.1,70,0.00,CLR,,0.00,0.0,WeatherDisplay:10.37,2013-07-22 16:06:00,
2013-07-22 11:11:00,76.1,65.2,29.76,South,181,5.8,5.8,69,0.00,CLR,,0.00,0.0,WeatherDisplay:10.37,2013-07-22 16:11:00,
2013-07-22 11:16:00,76.6,65.3,29.76,West,259,5.8,5.8,68,0.00,CLR,,0.00,0.0,WeatherDisplay:10.37,2013-07-22 16:16:00,
2013-07-22 11:21:00,76.8,64.6,29.76,WSW,239,6.9,6.9,66,0.00,CLR,,0.00,0.0,WeatherDisplay:10.37,2013-07-22 16:21:00,
2013-07-22 11:26:00,77.0,64.8,29.76,SSE,166,8.1,8.1,66,0.00,CLR,,0.00,0.0,WeatherDisplay:10.37,2013-07-22 16:26:00,
2013-07-22 11:31:00,77.5,65.3,29.76,South,177,6.9,6.9,66,0.00,CLR,,0.00,0.0,WeatherDisplay:10.37,2013-07-22 16:31:00,
2013-07-22 11:36:00,77.7,65.5,29.76,SSE,149,5.8,5.8,66,0.00,CLR,,0.00,0.0,WeatherDisplay:10.37,2013-07-22 16:36:00,
2013-07-22 11:41:00,78.1,65.4,29.76,SSW,209,9.2,9.2,65,0.00,SCT,,0.00,0.0,WeatherDisplay:10.37,2013-07-22 16:41:00,
2013-07-22 11:46:00,78.4,64.8,29.76,SSE,167,10.4,10.4,63,0.00,SCT,,0.00,0.0,WeatherDisplay:10.37,2013-07-22 16:46:00,
2013-07-22 11:51:00,79.0,65.8,29.76,SSW,213,8.1,8.1,64,0.00,SCT,,0.00,0.0,WeatherDisplay:10.37,2013-07-22 16:51:00,
2013-07-22 11:58:00,80.1,65.9,29.76,South,183,6.9,7.2,62,0.00,SCT,,0.00,0.0,WeatherDisplay:10.37,2013-07-22 16:58:00,
2013-07-22 12:03:00,79.7,65.1,29.76,WSW,251,9.2,9.2,61,0.00,SCT,,0.00,0.0,WeatherDisplay:10.37,2013-07-22 17:03:00,
2013-07-22 12:08:00,79.5,64.9,29.76,SW,235,9.2,9.2,61,0.00,SCT,,0.00,0.0,WeatherDisplay:10.37,2013-07-22 17:08:00,
2013-07-22 12:13:00,79.9,65.2,29.76,SSW,205,9.2,9.2,61,0.00,SCT,,0.00,0.0,WeatherDisplay:10.37,2013-07-22 17:13:00,
2013-07-22 12:18:00,80.2,65.6,29.76,SW,231,3.5,3.5,61,0.00,SCT,,0.00,0.0,WeatherDisplay:10.37,2013-07-22 17:18:00,
2013-07-22 12:23:00,80.4,64.8,29.76,West,265,8.1,8.1,59,0.00,SCT,,0.00,0.0,WeatherDisplay:10.37,2013-07-22 17:23:00,
2013-07-22 12:28:00,81.0,65.8,29.76,SSE,161,8.1,8.1,60,0.00,SCT,,0.00,0.0,WeatherDisplay:10.37,2013-07-22 17:28:00,
2013-07-22 12:33:00,81.7,65.5,29.73,SSE,162,5.8,5.8,58,0.00,CLR,,0.00,0.0,WeatherDisplay:10.37,2013-07-22 17:33:00,
2013-07-22 12:38:00,82.0,65.3,29.73,South,176,13.8,13.8,57,0.00,CLR,,0.00,0.0,WeatherDisplay:10.37,2013-07-22 17:38:00,
2013-07-22 12:43:00,82.2,65.0,29.73,SSE,164,9.2,9.2,56,0.00,CLR,,0.00,0.0,WeatherDisplay:10.37,2013-07-22 17:43:00,
2013-07-22 12:48:00,82.4,65.1,29.73,SE,146,6.9,6.9,56,0.00,CLR,,0.00,0.0,WeatherDisplay:10.37,2013-07-22 17:48:00,
2013-07-22 12:53:00,82.6,65.3,29.73,SSW,195,8.1,8.1,56,0.00,CLR,,0.00,0.0,WeatherDisplay:10.37,2013-07-22 17:53:00,
2013-07-22 12:59:00,83.3,65.4,29.73,SSW,203,5.8,5.8,55,0.00,CLR,,0.00,0.0,WeatherDisplay:10.37,2013-07-22 17:59:00,
2013-07-22 13:04:00,83.8,65.9,29.73,South,175,6.9,7.2,55,0.00,CLR,,0.00,0.0,WeatherDisplay:10.37,2013-07-22 18:04:00,
2013-07-22 13:09:00,83.8,65.4,29.73,SSW,202,10.4,10.4,54,0.00,CLR,,0.00,0.0,WeatherDisplay:10.37,2013-07-22 18:09:00,
2013-07-22 13:14:00,83.8,65.4,29.73,SSW,202,9.2,9.2,54,0.00,CLR,,0.00,0.0,WeatherDisplay:10.37,2013-07-22 18:14:00,
2013-07-22 13:19:00,83.8,65.9,29.73,South,189,11.5,11.5,55,0.00,CLR,,0.00,0.0,WeatherDisplay:10.37,2013-07-22 18:19:00,
2013-07-22 13:25:00,84.7,66.3,29.73,SSW,210,9.2,9.2,54,0.00,CLR,,0.00,0.0,WeatherDisplay:10.37,2013-07-22 18:25:00,
2013-07-22 13:31:00,85.1,66.0,29.70,SW,236,8.1,8.1,53,0.00,CLR,,0.00,0.0,WeatherDisplay:10.37,2013-07-22 18:31:00,
2013-07-22 13:36:00,85.5,66.4,29.70,South,173,9.2,9.2,53,0.00,CLR,,0.00,0.0,WeatherDisplay:10.37,2013-07-22 18:36:00,
2013-07-22 13:42:00,85.5,65.3,29.70,WSW,246,8.1,8.1,51,0.00,CLR,,0.00,0.0,WeatherDisplay:10.37,2013-07-22 18:42:00,
2013-07-22 13:47:00,85.6,64.9,29.70,WSW,253,8.1,8.1,50,0.00,CLR,,0.00,0.0,WeatherDisplay:10.37,2013-07-22 18:47:00,
2013-07-22 13:52:00,86.4,65.5,29.70,SW,231,9.2,9.2,50,0.00,CLR,,0.00,0.0,WeatherDisplay:10.37,2013-07-22 18:52:00,
2013-07-22 13:57:00,86.7,65.9,29.70,SW,226,5.8,5.8,50,0.00,CLR,,0.00,0.0,WeatherDisplay:10.37,2013-07-22 18:57:00,
2013-07-22 14:03:00,86.9,66.0,29.70,SSW,205,5.8,5.8,50,0.00,CLR,,0.00,0.0,WeatherDisplay:10.37,2013-07-22 19:03:00,
2013-07-22 14:08:00,87.3,65.2,29.70,SSW,207,6.9,6.9,48,0.00,CLR,,0.00,0.0,WeatherDisplay:10.37,2013-07-22 19:08:00,
2013-07-22 14:14:00,87.3,65.8,29.70,South,185,6.9,6.9,49,0.00,CLR,,0.00,0.0,WeatherDisplay:10.37,2013-07-22 19:14:00,
2013-07-22 14:20:00,87.3,65.2,29.70,SW,229,9.2,9.2,48,0.00,CLR,,0.00,0.0,WeatherDisplay:10.37,2013-07-22 19:20:00,
2013-07-22 14:25:00,87.4,65.3,29.70,South,178,8.1,8.1,48,0.00,CLR,,0.00,0.0,WeatherDisplay:10.37,2013-07-22 19:25:00,
2013-07-22 14:31:00,87.3,65.2,29.70,SSW,202,9.2,9.2,48,0.00,CLR,,0.00,0.0,WeatherDisplay:10.37,2013-07-22 19:31:00,
2013-07-22 14:36:00,87.3,65.8,29.70,South,190,9.2,9.2,49,0.00,CLR,,0.00,0.0,WeatherDisplay:10.37,2013-07-22 19:36:00,
2013-07-22 14:41:00,87.6,65.5,29.70,ESE,119,9.2,9.2,48,0.00,CLR,,0.00,0.0,WeatherDisplay:10.37,2013-07-22 19:41:00,
2013-07-22 14:47:00,87.8,66.3,29.67,SSE,155,6.9,6.9,49,0.00,CLR,,0.00,0.0,WeatherDisplay:10.37,2013-07-22 19:47:00,
2013-07-22 14:52:00,87.4,65.3,29.67,South,181,11.5,11.5,48,0.00,CLR,,0.00,0.0,WeatherDisplay:10.37,2013-07-22 19:52:00,
2013-07-22 14:57:00,87.1,66.2,29.67,SSW,195,6.9,6.9,50,0.00,CLR,,0.00,0.0,WeatherDisplay:10.37,2013-07-22 19:57:00,
2013-07-22 15:02:00,86.7,65.9,29.67,SSW,202,5.8,5.8,50,0.00,SCT,,0.00,0.0,WeatherDisplay:10.37,2013-07-22 20:02:00,
2013-07-22 15:07:00,86.4,66.1,29.67,SW,235,6.9,6.9,51,0.00,SCT,,0.00,0.0,WeatherDisplay:10.37,2013-07-22 20:07:00,
2013-07-22 15:13:00,86.0,66.9,29.67,South,182,10.4,10.4,53,0.00,SCT,,0.00,0.0,WeatherDisplay:10.37,2013-07-22 20:13:00,
2013-07-22 15:17:00,85.8,66.2,29.67,SW,215,8.1,8.1,52,0.00,SCT,,0.00,0.0,WeatherDisplay:10.37,2013-07-22 20:17:00,
2013-07-22 15:22:00,85.5,66.4,29.67,SSW,207,8.1,8.3,53,0.00,SCT,,0.00,0.0,WeatherDisplay:10.37,2013-07-22 20:22:00,
2013-07-22 15:27:00,85.3,66.8,29.67,WSW,243,13.1,13.1,54,0.00,SCT,,0.00,0.0,WeatherDisplay:10.37,2013-07-22 20:27:00,
2013-07-22 15:32:00,85.3,66.8,29.67,South,190,8.1,8.1,54,0.00,SCT,,0.00,0.0,WeatherDisplay:10.37,2013-07-22 20:32:00,
2013-07-22 15:37:00,85.6,66.5,29.67,SW,216,10.4,10.4,53,0.00,SCT,,0.00,0.0,WeatherDisplay:10.37,2013-07-22 20:37:00,
2013-07-22 15:42:00,85.5,66.9,29.67,SSW,200,13.8,13.8,54,0.00,SCT,,0.00,0.0,WeatherDisplay:10.37,2013-07-22 20:42:00,
2013-07-22 15:43:00,85.5,66.9,29.67,South,173,13.8,13.8,54,0.00,SCT,,0.00,0.0,WeatherDisplay:10.37,2013-07-22 20:43:00,
2013-07-22 15:48:00,85.6,66.5,29.67,WSW,239,8.1,8.1,53,0.00,SCT,,0.00,0.0,WeatherDisplay:10.37,2013-07-22 20:48:00,
2013-07-22 15:53:00,85.3,66.2,29.67,SW,225,8.1,8.1,53,0.00,BKN,,0.00,0.0,WeatherDisplay:10.37,2013-07-22 20:53:00,
2013-07-22 15:58:00,85.1,66.6,29.67,WSW,239,8.1,8.1,54,0.00,BKN,,0.00,0.0,WeatherDisplay:10.37,2013-07-22 20:58:00,
2013-07-22 16:03:00,85.1,66.6,29.67,WSW,252,9.2,9.2,54,0.00,BKN,,0.00,0.0,WeatherDisplay:10.37,2013-07-22 21:03:00,
2013-07-22 16:08:00,85.1,66.6,29.67,WSW,237,9.2,9.2,54,0.00,BKN,,0.00,0.0,WeatherDisplay:10.37,2013-07-22 21:08:00,
2013-07-22 16:13:00,84.9,66.4,29.67,SW,220,12.7,12.7,54,0.00,BKN,,0.00,0.0,WeatherDisplay:10.37,2013-07-22 21:13:00,
2013-07-22 16:18:00,84.9,66.4,29.67,WSW,243,10.4,10.4,54,0.00,BKN,,0.00,0.0,WeatherDisplay:10.37,2013-07-22 21:18:00,
2013-07-22 16:23:00,85.1,66.6,29.67,SSW,210,10.4,10.4,54,0.00,OVC,,0.00,0.0,WeatherDisplay:10.37,2013-07-22 21:23:00,
2013-07-22 16:28:00,85.1,66.6,29.67,SSE,160,10.4,10.4,54,0.00,OVC,,0.00,0.0,WeatherDisplay:10.37,2013-07-22 21:28:00,
2013-07-22 16:33:00,85.1,66.6,29.67,WSW,252,10.4,10.4,54,0.00,OVC,,0.00,0.0,WeatherDisplay:10.37,2013-07-22 21:33:00,
2013-07-22 16:38:00,84.7,66.3,29.67,SW,216,11.5,11.5,54,0.00,OVC,,0.00,0.0,WeatherDisplay:10.37,2013-07-22 21:38:00,
2013-07-22 16:43:00,84.2,66.3,29.67,SW,226,9.2,9.2,55,0.00,OVC,,0.00,0.0,WeatherDisplay:10.37,2013-07-22 21:43:00,
2013-07-22 16:48:00,83.8,66.5,29.67,SSW,208,9.3,9.3,56,0.00,OVC,,0.00,0.0,WeatherDisplay:10.37,2013-07-22 21:48:00,
2013-07-22 16:53:00,83.8,66.5,29.67,SW,220,9.2,9.2,56,0.00,BKN,,0.00,0.0,WeatherDisplay:10.37,2013-07-22 21:53:00,
2013-07-22 16:58:00,83.7,66.3,29.67,WSW,248,12.7,12.7,56,0.00,BKN,,0.00,0.0,WeatherDisplay:10.37,2013-07-22 21:58:00,
2013-07-22 17:03:00,83.1,65.8,29.67,SW,224,8.1,8.1,56,0.00,SCT,,0.00,0.0,WeatherDisplay:10.37,2013-07-22 22:03:00,
2013-07-22 17:08:00,82.9,65.6,29.67,WSW,237,8.1,8.1,56,0.00,SCT,,0.00,0.0,WeatherDisplay:10.37,2013-07-22 22:08:00,
2013-07-22 17:13:00,82.6,65.3,29.67,WSW,239,9.2,9.2,56,0.00,SCT,,0.00,0.0,WeatherDisplay:10.37,2013-07-22 22:13:00,
2013-07-22 17:18:00,82.4,65.6,29.65,South,177,5.8,5.8,57,0.00,SCT,,0.00,0.0,WeatherDisplay:10.37,2013-07-22 22:18:00,
2013-07-22 17:23:00,82.2,66.0,29.65,West,261,5.8,5.8,58,0.00,SCT,,0.00,0.0,WeatherDisplay:10.37,2013-07-22 22:23:00,
2013-07-22 17:28:00,82.0,65.8,29.65,SSW,204,5.8,5.8,58,0.00,SCT,,0.00,0.0,WeatherDisplay:10.37,2013-07-22 22:28:00,
2013-07-22 17:33:00,81.7,65.5,29.65,WSW,237,9.2,9.2,58,0.00,CLR,,0.00,0.0,WeatherDisplay:10.37,2013-07-22 22:33:00,
2013-07-22 17:38:00,81.3,65.6,29.65,South,172,5.8,5.8,59,0.00,CLR,,0.00,0.0,WeatherDisplay:10.37,2013-07-22 22:38:00,
2013-07-22 17:43:00,81.0,65.8,29.65,SSW,197,5.8,5.8,60,0.00,SCT,,0.00,0.0,WeatherDisplay:10.37,2013-07-22 22:43:00,
2013-07-22 17:48:00,80.6,66.4,29.65,South,183,8.1,8.1,62,0.00,SCT,,0.00,0.0,WeatherDisplay:10.37,2013-07-22 22:48:00,
2013-07-22 17:53:00,80.2,66.5,29.65,SW,223,8.1,8.1,63,0.00,SCT,,0.00,0.0,WeatherDisplay:10.37,2013-07-22 22:53:00,
2013-07-22 17:58:00,80.1,66.8,29.65,South,189,8.1,8.1,64,0.00,SCT,,0.00,0.0,WeatherDisplay:10.37,2013-07-22 22:58:00,
2013-07-22 18:03:00,79.7,66.4,29.65,SSW,212,5.8,5.8,64,0.00,BKN,,0.00,0.0,WeatherDisplay:10.37,2013-07-22 23:03:00,
2013-07-22 18:08:00,79.5,66.7,29.65,SSW,210,11.5,11.5,65,0.00,BKN,,0.00,0.0,WeatherDisplay:10.37,2013-07-22 23:08:00,
2013-07-22 18:13:00,79.3,66.5,29.65,SW,218,6.9,6.9,65,0.00,BKN,,0.00,0.0,WeatherDisplay:10.37,2013-07-22 23:13:00,
2013-07-22 18:18:00,79.0,66.6,29.65,South,187,11.5,11.5,66,0.00,BKN,,0.00,0.0,WeatherDisplay:10.37,2013-07-22 23:18:00,
2013-07-22 18:23:00,78.6,66.3,29.65,South,180,8.1,8.1,66,0.00,BKN,,0.00,0.0,WeatherDisplay:10.37,2013-07-22 23:23:00,
2013-07-22 18:28:00,78.4,66.6,29.65,ESE,104,11.5,11.5,67,0.00,BKN,,0.00,0.0,WeatherDisplay:10.37,2013-07-22 23:28:00,
2013-07-22 18:33:00,78.1,66.2,29.65,SW,224,8.1,8.1,67,0.00,BKN,,0.00,0.0,WeatherDisplay:10.37,2013-07-22 23:33:00,
2013-07-22 18:38:00,77.9,66.1,29.65,SSW,212,6.9,6.9,67,0.00,BKN,,0.00,0.0,WeatherDisplay:10.37,2013-07-22 23:38:00,
2013-07-22 18:43:00,77.7,66.3,29.65,WSW,243,5.8,5.8,68,0.00,SCT,,0.00,0.0,WeatherDisplay:10.37,2013-07-22 23:43:00,
2013-07-22 18:48:00,77.5,66.1,29.65,SSW,203,4.6,4.6,68,0.00,SCT,,0.00,0.0,WeatherDisplay:10.37,2013-07-22 23:48:00,
2013-07-22 18:53:00,77.5,66.6,29.65,SSE,151,8.1,8.1,69,0.00,BKN,,0.00,0.0,WeatherDisplay:10.37,2013-07-22 23:53:00,
2013-07-22 18:58:00,77.4,66.4,29.65,SSW,213,5.8,5.8,69,0.00,BKN,,0.00,0.0,WeatherDisplay:10.37,2013-07-22 23:58:00,
2013-07-22 19:03:00,77.5,66.6,29.62,SSW,199,0.0,0.0,69,0.00,BKN,,0.00,0.0,WeatherDisplay:10.37,2013-07-23 00:03:00,
2013-07-22 19:08:00,77.5,66.6,29.62,South,174,2.3,0.0,69,0.00,BKN,,0.00,0.0,WeatherDisplay:10.37,2013-07-23 00:08:00,
2013-07-22 19:13:00,77.9,66.9,29.62,SSE,167,5.3,5.3,69,0.00,BKN,,0.00,0.0,WeatherDisplay:10.37,2013-07-23 00:13:00,
2013-07-22 19:18:00,78.3,67.3,29.62,SW,215,3.5,3.5,69,0.00,BKN,,0.00,0.0,WeatherDisplay:10.37,2013-07-23 00:18:00,
2013-07-22 19:23:00,78.8,67.3,29.62,SW,216,6.9,6.9,68,0.00,SCT,,0.00,0.0,WeatherDisplay:10.37,2013-07-23 00:23:00,
2013-07-22 19:28:00,79.2,67.7,29.62,South,175,3.5,3.5,68,0.00,SCT,,0.00,0.0,WeatherDisplay:10.37,2013-07-23 00:28:00,
2013-07-22 19:33:00,79.7,67.8,29.62,South,187,5.8,5.8,67,0.00,SCT,,0.00,0.0,WeatherDisplay:10.37,2013-07-23 00:33:00,
2013-07-22 19:38:00,79.7,67.8,29.62,SSE,158,5.8,5.8,67,0.00,SCT,,0.00,0.0,WeatherDisplay:10.37,2013-07-23 00:38:00,
2013-07-22 19:43:00,79.5,67.6,29.62,SSW,198,2.9,0.0,67,0.00,SCT,,0.00,0.0,WeatherDisplay:10.37,2013-07-23 00:43:00,
2013-07-22 19:48:00,79.0,67.5,29.62,SE,124,2.3,0.0,68,0.00,SCT,,0.00,0.0,WeatherDisplay:10.37,2013-07-23 00:48:00,
2013-07-22 19:53:00,78.6,67.2,29.62,SSW,210,6.9,6.9,68,0.00,SCT,,0.00,0.0,WeatherDisplay:10.37,2013-07-23 00:53:00,
2013-07-22 19:58:00,78.4,67.4,29.62,SW,220,8.1,8.1,69,0.00,SCT,,0.00,0.0,WeatherDisplay:10.37,2013-07-23 00:58:00,
2013-07-22 20:03:00,78.3,67.7,29.65,South,169,5.8,5.8,70,0.00,SCT,,0.00,0.0,WeatherDisplay:10.37,2013-07-23 01:03:00,
2013-07-22 20:08:00,78.1,67.5,29.65,SW,225,5.8,5.8,70,0.00,SCT,,0.00,0.0,WeatherDisplay:10.37,2013-07-23 01:08:00,
2013-07-22 20:13:00,77.9,67.3,29.65,SSW,195,2.3,0.0,70,0.00,SCT,,0.00,0.0,WeatherDisplay:10.37,2013-07-23 01:13:00,
2013-07-22 20:18:00,77.7,67.2,29.65,North,353,4.6,4.6,70,0.00,SCT,,0.00,0.0,WeatherDisplay:10.37,2013-07-23 01:18:00,
2013-07-22 20:23:00,77.5,66.6,29.65,North,3,4.6,4.6,69,0.00,SCT,,0.00,0.0,WeatherDisplay:10.37,2013-07-23 01:23:00,
2013-07-22 20:28:00,77.4,66.4,29.65,SE,144,3.5,0.0,69,0.00,SCT,,0.00,0.0,WeatherDisplay:10.37,2013-07-23 01:28:00,
2013-07-22 20:33:00,77.2,65.8,29.65,North,357,0.0,0.0,68,0.00,SCT,,0.00,0.0,WeatherDisplay:10.37,2013-07-23 01:33:00,
2013-07-22 20:38:00,77.0,64.8,29.65,SSW,197,4.3,4.3,66,0.00,SCT,,0.00,0.0,WeatherDisplay:10.37,2013-07-23 01:38:00,
2013-07-22 20:43:00,76.8,64.6,29.65,SW,219,5.8,0.0,66,0.00,CLR,,0.00,0.0,WeatherDisplay:10.37,2013-07-23 01:43:00,
2013-07-22 20:48:00,76.5,64.3,29.65,SW,222,6.9,6.9,66,0.00,CLR,,0.00,0.0,WeatherDisplay:10.37,2013-07-23 01:48:00,
2013-07-22 20:53:00,76.3,63.6,29.65,South,173,2.9,0.0,65,0.00,CLR,,0.00,0.0,WeatherDisplay:10.37,2013-07-23 01:53:00,
2013-07-22 20:58:00,75.9,62.9,29.65,North,0,0.0,0.0,64,0.00,CLR,,0.00,0.0,WeatherDisplay:10.37,2013-07-23 01:58:00,
2013-07-22 21:03:00,75.9,62.9,29.65,NW,316,0.0,0.0,64,0.00,SCT,,0.00,0.0,WeatherDisplay:10.37,2013-07-23 02:03:00,
2013-07-22 21:08:00,75.9,61.5,29.65,NNW,338,3.5,0.0,61,0.00,SCT,,0.00,0.0,WeatherDisplay:10.37,2013-07-23 02:08:00,
2013-07-22 21:13:00,75.9,61.0,29.65,WSW,258,4.6,4.6,60,0.00,SCT,,0.00,0.0,WeatherDisplay:10.37,2013-07-23 02:13:00,
2013-07-22 21:18:00,75.9,61.5,29.67,SW,220,4.6,4.6,61,0.00,SCT,,0.00,0.0,WeatherDisplay:10.37,2013-07-23 02:18:00,
2013-07-22 21:23:00,75.7,61.3,29.67,SE,141,2.3,0.0,61,0.00,SCT,,0.00,0.0,WeatherDisplay:10.37,2013-07-23 02:23:00,
2013-07-22 21:28:00,75.6,61.6,29.67,SW,219,5.8,5.8,62,0.00,SCT,,0.00,0.0,WeatherDisplay:10.37,2013-07-23 02:28:00,
2013-07-22 21:33:00,75.4,61.9,29.67,SSW,213,3.5,3.5,63,0.00,SCT,,0.00,0.0,WeatherDisplay:10.37,2013-07-23 02:33:00,
2013-07-22 21:38:00,75.2,61.7,29.67,WSW,256,4.6,4.6,63,0.00,SCT,,0.00,0.0,WeatherDisplay:10.37,2013-07-23 02:38:00,
2013-07-22 21:43:00,75.0,62.0,29.67,SSW,193,4.6,4.6,64,0.00,SCT,,0.00,0.0,WeatherDisplay:10.37,2013-07-23 02:43:00,
2013-07-22 21:48:00,74.8,62.3,29.65,SSE,165,2.3,0.0,65,0.00,SCT,,0.00,0.0,WeatherDisplay:10.37,2013-07-23 02:48:00,
2013-07-22 21:53:00,74.5,61.9,29.65,SSW,210,4.6,4.6,65,0.00,SCT,,0.00,0.0,WeatherDisplay:10.37,2013-07-23 02:53:00,
2013-07-22 21:58:00,74.3,61.8,29.65,SE,129,3.5,3.5,65,0.00,SCT,,0.00,0.0,WeatherDisplay:10.37,2013-07-23 02:58:00,
2013-07-22 22:03:00,73.9,61.4,29.65,SW,233,4.6,4.6,65,0.00,SCT,,0.00,0.0,WeatherDisplay:10.37,2013-07-23 03:03:00,
2013-07-22 22:08:00,73.8,61.7,29.65,NW,317,0.0,0.0,66,0.00,SCT,,0.00,0.0,WeatherDisplay:10.37,2013-07-23 03:08:00,
2013-07-22 22:13:00,73.6,61.5,29.65,South,174,0.0,0.0,66,0.00,SCT,,0.00,0.0,WeatherDisplay:10.37,2013-07-23 03:13:00,
2013-07-22 22:18:00,73.6,61.5,29.65,WSW,248,0.0,0.0,66,0.00,SCT,,0.00,0.0,WeatherDisplay:10.37,2013-07-23 03:18:00,
2013-07-22 22:23:00,73.4,61.3,29.65,SW,214,3.5,3.5,66,0.00,CLR,,0.00,0.0,WeatherDisplay:10.37,2013-07-23 03:23:00,
2013-07-22 22:28:00,73.0,61.4,29.65,South,189,2.3,0.0,67,0.00,CLR,,0.00,0.0,WeatherDisplay:10.37,2013-07-23 03:28:00,
2013-07-22 22:33:00,72.9,61.3,29.67,South,189,0.0,0.0,67,0.00,CLR,,0.00,0.0,WeatherDisplay:10.37,2013-07-23 03:33:00,
2013-07-22 22:38:00,72.7,61.5,29.67,South,183,0.0,0.0,68,0.00,CLR,,0.00,0.0,WeatherDisplay:10.37,2013-07-23 03:38:00,
2013-07-22 22:43:00,72.3,61.2,29.67,WSW,248,0.0,0.0,68,0.00,CLR,,0.00,0.0,WeatherDisplay:10.37,2013-07-23 03:43:00,
2013-07-22 22:48:00,72.1,61.4,29.67,SSE,166,0.0,0.0,69,0.00,CLR,,0.00,0.0,WeatherDisplay:10.37,2013-07-23 03:48:00,
2013-07-22 22:53:00,71.8,61.5,29.67,SSE,166,0.0,0.0,70,0.00,CLR,,0.00,0.0,WeatherDisplay:10.37,2013-07-23 03:53:00,
2013-07-22 22:58:00,71.6,61.3,29.67,SSW,209,3.5,0.0,70,0.00,CLR,,0.00,0.0,WeatherDisplay:10.37,2013-07-23 03:58:00,
2013-07-22 23:01:00,71.4,61.1,29.67,South,183,2.3,2.3,70,0.00,CLR,,0.00,0.0,WeatherDisplay:10.37,2013-07-23 04:01:00,
2013-07-22 23:06:00,71.2,61.4,29.67,South,170,3.5,0.0,71,0.00,CLR,,0.00,0.0,WeatherDisplay:10.37,2013-07-23 04:06:00,
2013-07-22 23:11:00,71.1,61.6,29.67,SSW,198,3.5,0.0,72,0.00,CLR,,0.00,0.0,WeatherDisplay:10.37,2013-07-23 04:11:00,
2013-07-22 23:16:00,70.9,61.4,29.70,SSW,198,0.0,0.0,72,0.00,CLR,,0.00,0.0,WeatherDisplay:10.37,2013-07-23 04:16:00,
2013-07-22 23:21:00,70.9,61.8,29.70,SSW,198,0.0,0.0,73,0.00,CLR,,0.00,0.0,WeatherDisplay:10.37,2013-07-23 04:21:00,
2013-07-22 23:26:00,70.7,62.0,29.70,SSW,198,0.0,0.0,74,0.00,SCT,,0.00,0.0,WeatherDisplay:10.37,2013-07-23 04:26:00,
2013-07-22 23:31:00,70.5,61.8,29.70,SSW,193,0.0,0.0,74,0.00,SCT,,0.00,0.0,WeatherDisplay:10.37,2013-07-23 04:31:00,
2013-07-22 23:36:00,70.7,62.8,29.70,SSW,193,0.0,0.0,76,0.00,SCT,,0.00,0.0,WeatherDisplay:10.37,2013-07-23 04:36:00,
2013-07-22 23:41:00,70.7,63.1,29.70,SSE,157,2.3,0.0,77,0.00,SCT,,0.00,0.0,WeatherDisplay:10.37,2013-07-23 04:41:00,
2013-07-22 23:46:00,70.9,63.3,29.70,NE,41,0.0,0.0,77,0.00,OVC,,0.00,0.0,WeatherDisplay:10.37,2013-07-23 04:46:00,
2013-07-22 23:51:00,71.1,64.2,29.70,North,4,8.1,8.1,79,0.00,OVC,,0.00,0.0,WeatherDisplay:10.37,2013-07-23 04:51:00,
2013-07-22 23:56:00,71.2,62.1,29.70,North,7,11.5,11.5,73,0.00,OVC,,0.00,0.0,WeatherDisplay:10.37,2013-07-23 04:56:00,